Regional Weather Roundup
Issued by NWS

Home | Current Version | Previous Version | Text Only | Print | Product List | Glossary Off
Versions: 1 2 3 4 5 6 7 8 9 10 11 12 13 14 15 16 17 18 19 20 21 22 23 24 25 26 27 28 29 30 31 32 33 34 35 36 37 38 39 40 41 42 43 44 45 46 47 48 49 50

000
ASUS44 KMEG 281110
RWRTN
TENNESSEE HOURLY STATE WEATHER ROUNDUP
NATIONAL WEATHER SERVICE MEMPHIS TN
600 AM CDT THU MAY 28 2015

TNZ002-004-019-021-049-052-054-088>092-281200-
WEST TENNESSEE

CITY           SKY/WX    TMP DP  RH WIND       PRES   REMARKS
MEMPHIS INTL   CLOUDY    70  66  87 SE5       30.13R
NWS MEMPHIS      N/A     69 N/A N/A MISG        N/A
JACKSON        NOT AVBL
DYERSBURG      CLOUDY    64  52  63 CALM      30.15R
PARIS          CLOUDY    57  57 100 CALM      30.17R VSB 1/4
LEXINGTON      CLOUDY    59  59 100 CALM      30.16R VSB 1/4
$$

TNZ008-025-027-028-033-062-065-066-281200-
NORTH MIDDLE TENNESSEE

CITY           SKY/WX    TMP DP  RH WIND       PRES   REMARKS
NASHVILLE      CLOUDY    67  66  97 SE3       30.20R
CLARKSVILLE    FOG       61  61 100 SE5       30.17R VSB<1/4
SMYRNA         CLOUDY    66  65  97 CALM      30.21R
COOKEVILLE     CLOUDY    64  64 100 NE3       30.23R
CROSSVILLE     CLOUDY    65  62  90 CALM      30.26R
$$

TNZ061-075-076-078-094-096-097-281200-
SOUTH MIDDLE TENNESSEE

CITY           SKY/WX    TMP DP  RH WIND       PRES   REMARKS
FAYETTEVILLE   MOCLDY   N/A N/A N/A MISG      30.20R
TULLAHOMA      MOCLDY    64  63  94 CALM      30.22R
WINCHESTER     CLOUDY    64  63  94 CALM      30.21R
MCMINNVILLE    MOCLDY    64  64 100 NE5       30.22R
COLUMBIA       CLOUDY    64  64 100 CALM      30.18R
SHELBYVILLE    CLOUDY    66  64  94 CALM      30.21R
$$

TNZ017-018-042-046-047-281200-
NORTHEAST TENNESSEE

CITY           SKY/WX    TMP DP  RH WIND       PRES   REMARKS
TRI CITIES     PTCLDY    63  61  93 CALM      30.26R
ELIZABETHTON   SUNNY     61  59  94 CALM      30.26R
$$

TNZ012-013-036-069-073-074-281200-
CENTRAL EAST TENNESSEE

CITY           SKY/WX    TMP DP  RH WIND       PRES   REMARKS
KNOXVILLE      MOCLDY    69  63  81 CALM      30.21R
OAK RIDGE      CLOUDY    69  66  90 CALM      30.23R
GATLINBURG       N/A     63  61  94 CALM      30.22R
MORRISTOWN     SUNNY     64  63  94 CALM      30.24R
$$

TNZ083-085-099-281200-
SOUTHEAST TENNESSEE

CITY           SKY/WX    TMP DP  RH WIND       PRES   REMARKS
CHATTANOOGA    LGT RAIN  68  66  93 N5        30.20R
$$

SKY/WX REPORTED AS FAIR MEANS FEW OR NO CLOUDS BELOW
12 THOUSAND FEET.




USA.gov is the U.S. government's official web portal to all federal, state and local government web resources and services.